Flag for India Weather past 2 weeks in Pathankot, Punjab, India

72 °F

Scattered clouds.

Feels Like: 77 °F
Forecast: 47 / 75 °F
Wind: 5 mph from Northwest

Location: Lahore Airport

Current Time: Nov 30, 2015 at 2:17:23 PM

Latest Report: Nov 30, 2015 at 1:25 PM

Visibility: 1 mi

Pressure: 30.09 "Hg

Humidity: 44%

Dew point: 48 °F

Location of PathankotLocation

Historic Weather in Pathankot — Graph


Pathankot temperature yesterday

Maximum temperature yesterday: 75 °F (at 2:55 PM)
Minimum temperature yesterday: 52 °F (at 5:30 AM)
Average temperature yesterday: 64 °F

Past Weeks' High & Low Weather Summary

High82 °F (Nov 15, 2:55 PM)94% (Nov 18, 8:00 AM)30.18 "Hg (Nov 18, 8:00 AM)
Low50 °F (Nov 28, 7:25 AM)23% (Nov 19, 3:25 PM)29.89 "Hg (Nov 15, 2:55 PM)
Average67 °F57%30.01 "Hg
* Reported Nov 15 11:55 AM — Nov 30 12:25 PM, Pathankot, Weather by CustomWeather, © 2015

Note: Actual official high and low records may vary slightly from our data, if they occured in-between our weather recording intervals... More about our weather records


Pathankot weather history for previous 24 hours

Time TempWeatherWind HumidityBarometerVisibility
12:25 PM
Mon, Nov 30
70 °FScattered clouds.5 mph53%30.12 "Hg1 mi
11:25 AM68 °FScattered clouds.No wind56%30.15 "Hg1 mi
10:55 AM66 °FScattered clouds.5 mph68%30.18 "Hg1 mi
10:25 AM64 °FScattered clouds.No wind73%30.18 "Hg1 mi
9:55 AM63 °FScattered clouds.No wind77%30.18 "Hg1 mi
8:55 AM61 °FFog.No wind83%30.15 "Hg1 mi
8:30 AM61 °FFog.No wind83%30.15 "Hg1 mi
8:00 AM61 °FFog.No wind83%30.12 "Hg1 mi
7:30 AM61 °FFog.No wind83%30.12 "Hg1 mi
6:30 AM59 °FFog.No wind82%30.09 "Hg1 mi
6:00 AM59 °FFog.No wind88%30.09 "Hg1 mi
5:30 AM61 °FFog.3 mph83%30.09 "Hg1 mi
5:00 AM61 °FPassing clouds.3 mph77%30.09 "Hg1 mi
4:30 AM61 °FPassing clouds.3 mph77%30.09 "Hg1 mi
4:00 AM63 °FPassing clouds.No wind77%30.09 "Hg1 mi
3:30 AM63 °FPassing clouds.3 mph77%30.09 "Hg1 mi
3:00 AM63 °FPassing clouds.No wind77%30.09 "Hg2 mi
2:30 AM63 °FPassing clouds.No wind77%30.09 "Hg2 mi
2:00 AM63 °FPassing clouds.No wind77%30.09 "Hg2 mi
1:30 AM63 °FPassing clouds.No wind77%30.09 "Hg2 mi
1:00 AM64 °FPassing clouds.3 mph68%30.09 "Hg2 mi
12:30 AM64 °FPassing clouds.No wind68%30.09 "Hg2 mi
12:00 AM64 °FPassing clouds.3 mph68%30.09 "Hg2 mi
11:30 PM
Sun, Nov 29
64 °FPassing clouds.No wind68%30.09 "Hg2 mi
11:00 PM66 °FPassing clouds.No wind64%30.09 "Hg1 mi
10:30 PM66 °FPassing clouds.3 mph64%30.09 "Hg1 mi
10:00 PM68 °FPassing clouds.3 mph60%30.09 "Hg1 mi
9:30 PM68 °FPassing clouds.No wind60%30.09 "Hg1 mi
9:00 PM68 °FPassing clouds.No wind60%30.09 "Hg1 mi
8:25 PM68 °FPassing clouds.No wind60%30.09 "Hg1 mi
7:55 PM70 °FPassing clouds.3 mph57%30.07 "Hg1 mi
7:25 PM70 °FPassing clouds.5 mph57%30.07 "Hg1 mi
6:55 PM72 °FPassing clouds.3 mph50%30.07 "Hg1 mi
6:25 PM72 °FPassing clouds.3 mph50%30.07 "Hg1 mi
5:55 PM72 °FPassing clouds.No wind50%30.07 "Hg1 mi
5:25 PM73 °FScattered clouds.No wind47%30.07 "Hg1 mi
4:55 PM73 °FScattered clouds.No wind44%30.07 "Hg1 mi
4:25 PM73 °FScattered clouds.5 mph44%30.07 "Hg1 mi
3:55 PM75 °FScattered clouds.5 mph39%30.07 "Hg1 mi
2:55 PM75 °FScattered clouds.5 mph39%30.07 "Hg1 mi
2:25 PM73 °FHaze.3 mph41%30.09 "Hg1 mi
Weather by CustomWeather, © 2015

See weather overviewHow to use our weather pages